This demonstration page uses our WeatherBlox Daily Observations layout. Learn more.

Left ArrowRight Arrow

Hourly Observations for May 11, 2015

Temp ( °F °C ) Dew Point ( °F °C ) Humidity (%) Winds ( mph kmh ) Pressure ( in mb ) Visibility ( mi km ) Precip ( " mm )
12:53 am 00:53 Cloudy 68 20 41 5 38 38 WSW 5 7 29.85 1011 10 16 0.00 0.00
1:53 am 01:53 Cloudy 68 20 38 3.3 33 33 Calm 29.84 1010 10 16 0.00 0.00
2:53 am 02:53 Mostly Cloudy 64 17.8 37 2.8 37 37 W 6 9 29.83 1010 10 16 0.00 0.00
3:53 am 03:53 Partly Cloudy 64 17.8 39 3.9 40 40 WSW 7 11 29.84 1010 10 16 0.00 0.00
4:53 am 04:53 Clear 62 16.7 40 4.4 44 44 Calm 29.84 1011 10 16 0.00 0.00
5:53 am 05:53 Clear 58 14.4 41 5 53 53 WSW 3 6 29.84 1011 10 16 0.00 0.00
6:53 am 06:53 Sunny 61 16.1 41 5 48 48 SSW 5 7 29.85 1011 10 16 0.00 0.00
7:53 am 07:53 Sunny 62 16.7 43 6.1 50 50 SSW 6 9 29.86 1011 10 16 0.00 0.00
8:53 am 08:53 Sunny 65 18.3 43 6.1 45 45 VRB 6 9 29.85 1011 10 16 0.00 0.00
9:53 am 09:53 Sunny 68 20 45 7.2 44 44 WSW 6 9 29.84 1011 10 16 0.00 0.00
10:53 am 10:53 Sunny 70 21.1 44 6.7 39 39 SSE 6 9 29.82 1010 10 16 0.00 0.00
11:53 am 11:53 Sunny 74 23.3 43 6.1 33 33 undefined N/A 29.81 1009 10 16 0.00 0.00
12:53 pm 12:53 Sunny 76 24.4 43 6.1 31 31 S 13 20 29.79 1009 10 16 0.00 0.00
1:53 pm 13:53 Sunny 78 25.6 44 6.7 30 30 S 16 26 29.77 1008 10 16 0.00 0.00
2:53 pm 14:53 Mostly Cloudy 76 24.4 45 7.2 33 33 S 16 26 29.75 1008 10 16 0.00 0.00
3:53 pm 15:53 Sunny 78 25.6 46 7.8 32 32 SSE 17 28 29.72 1007 10 16 0.00 0.00
4:53 pm 16:53 Sunny 78 25.6 48 8.9 35 35 S 16 26 29.70 1006 10 16 0.00 0.00
5:53 pm 17:53 Mostly Cloudy 74 23.3 45 7.2 36 36 S 14 22 29.71 1006 10 16 0.00 0.00
6:53 pm 18:53 Sunny 72 22.2 32 0 23 23 NW 7 11 29.72 1006 10 16 0.00 0.00
7:53 pm 19:53 Cloudy 70 21.1 30 -1.1 23 23 WNW 9 15 29.75 1007 10 16 0.00 0.00
8:53 pm 20:53 Mostly Cloudy 66 18.9 32 0 28 28 undefined N/A 29.78 1008 10 16 0.00 0.00
9:53 pm 21:53 Partly Cloudy 62 16.7 34 1.1 35 35 E 6 9 29.80 1009 10 16 0.00 0.00
10:53 pm 22:53 Partly Cloudy 61 16.1 34 1.1 36 36 W 8 13 29.80 1009 10 16 0.00 0.00
11:53 pm 23:53 Cloudy 60 15.6 34 1.1 38 38 WNW 8 13 29.80 1009 10 16 0.00 0.00

Powered by AerisWeather